Tracking 20942 objects as of 14-Jul-2020
HD Live streaming from Space Station
objects crossing your sky now

COSMOS 681

Track COSMOS 681 now!
10-day predictions
COSMOS 681 is classified as:


NORAD ID: 7439
Int'l Code: 1974-072E
Perigee: 1,472.5 km
Apogee: 1,478.9 km
Inclination: 74.0 °
Period: 115.3 minutes
Semi major axis: 7846 km
RCS: 0.6868 m2 (medium)
Launch date: September 19, 1974
Source: Commonwealth of Independent States (former USSR) (CIS)
Launch site: PLESETSK MISSILE AND SPACE COMPLEX (PKMTR)
aabbcc
Your satellite tracking list
Your tracking list is empty




NASA's NSSDC Master Catalog

Two Line Element Set (TLE):
1  7439U 74072E   20195.72705135 -.00000006 +00000-0 +62222-4 0  9995
2  7439 074.0363 005.6650 0004081 039.2326 332.3467 12.49033751089064
Source of the keplerian elements: AFSPC